Home   Weather   Vilnius   Past weeks

Flag for Lithuania Past Weather in Vilnius, Lithuania — Yesterday and Last 2 Weeks

Now
30 °F

Light snow. Overcast.


Feels Like: 22 °F
Forecast: 12 / 31 °F
Wind: 9 mph from Northwest

Location: Vilnius Airport

Current Time: Jan 25, 2017 at 1:38:02 am

Latest Report: Jan 25, 2017 at 12:50 am


Visibility: N/A

Pressure: 30.15 "Hg

Humidity: 86%

Dew Point: 27 °F

Location of VilniusLocation

Past Weather in Vilnius — Graph

°F

Vilnius Temperature Yesterday

Maximum temperature yesterday: 34 °F (at 2:50 pm)
Minimum temperature yesterday: 28 °F (at 12:20 am)
Average temperature yesterday: 31 °F

High & Low Weather Summary for the Past Weeks

 TemperatureHumidityPressure
High34 °F (Jan 20, 11:50 am)100% (Jan 12, 9:50 pm)30.66 "Hg (Jan 12, 9:50 pm)
Low5 °F (Jan 10, 6:20 am)79% (Jan 11, 1:50 pm)29.30 "Hg (Jan 13, 11:20 pm)
Average26 °F94%30.07 "Hg
* Reported Jan 10 12:20 am — Jan 25 12:20 am, Vilnius, Weather by CustomWeather, © 2017

Note: Actual official high and low records may vary slightly from our data, if they occured in-between our weather recording intervals... More about our weather records

Advertising

Vilnius Weather History for the Previous 24 Hours

Scroll right to see more
 ConditionsComfort  
Time TempWeatherWind HumidityBarometerVisibility
12:20 am
Wed, Jan 25
30 °FLight snow. Overcast.10 mph86%30.15 "HgN/A
11:50 pm
Tue, Jan 24
30 °FLight snow. Overcast.14 mph86%30.15 "HgN/A
11:20 pm32 °FOvercast.14 mph80%30.12 "HgN/A
10:50 pm32 °FLight snow. Overcast.14 mph87%30.12 "HgN/A
10:20 pm32 °FLow clouds.10 mph87%30.12 "HgN/A
9:50 pm32 °FLight rain. Low clouds.12 mph100%30.12 "Hg4 mi
9:20 pm32 °FLight rain. Low clouds.8 mph100%30.09 "HgN/A
8:50 pm32 °FLight rain. Low clouds.8 mph100%30.09 "Hg6 mi
8:02 pm32 °FLight rain. Overcast.9 mph93%30.09 "Hg3 mi
7:20 pm32 °FLow clouds.7 mph93%30.07 "HgN/A
6:50 pm32 °FLow clouds.8 mph93%30.07 "HgN/A
6:20 pm32 °FLow clouds.8 mph93%30.07 "HgN/A
5:50 pm32 °FLow clouds.8 mph93%30.07 "HgN/A
5:20 pm32 °FLow clouds.8 mph93%30.07 "HgN/A
4:50 pm34 °FLow clouds.7 mph87%30.07 "HgN/A
4:20 pm34 °FLow clouds.8 mph87%30.07 "HgN/A
3:50 pm34 °FLow clouds.9 mph87%30.07 "HgN/A
3:20 pm34 °FLow clouds.9 mph87%30.07 "HgN/A
2:50 pm34 °FLow clouds.10 mph87%30.04 "HgN/A
2:20 pm32 °FLow clouds.8 mph100%30.04 "HgN/A
1:54 pm32 °FLow clouds.8 mph100%30.04 "HgN/A
1:20 pm32 °FLow clouds.12 mph100%30.04 "Hg6 mi
12:50 pm32 °FLow clouds.9 mph100%30.04 "Hg6 mi
12:20 pm32 °FLow clouds.9 mph100%30.04 "Hg5 mi
11:50 am32 °FLow clouds.8 mph100%30.04 "Hg4 mi
11:20 am32 °FLow clouds.9 mph100%30.04 "Hg4 mi
10:50 am32 °FIce fog.10 mph100%30.04 "Hg3 mi
10:20 am32 °FIce fog.9 mph100%30.04 "Hg3 mi
9:50 am32 °FIce fog.10 mph100%30.01 "Hg3 mi
9:20 am32 °FIce fog.10 mph93%30.01 "Hg3 mi
8:50 am32 °FIce fog.10 mph93%30.01 "Hg3 mi
8:20 am32 °FIce fog.12 mph93%30.01 "Hg3 mi
7:50 am32 °FMixture of precip. Ice fog.12 mph93%30.01 "Hg3 mi
7:20 am30 °FMixture of precip. Ice fog.10 mph100%29.98 "Hg1 mi
6:50 am30 °FSnow. Ice fog.10 mph100%29.98 "Hg1 mi
6:20 am30 °FMixture of precip. Ice fog.9 mph100%29.98 "Hg2 mi
5:50 am30 °FMixture of precip. Ice fog.9 mph100%29.98 "Hg3 mi
5:20 am30 °FMixture of precip. Ice fog.8 mph100%29.98 "Hg3 mi
4:50 am30 °FMixture of precip. Ice fog.9 mph93%29.98 "Hg2 mi
4:20 am30 °FSnow. Ice fog.9 mph93%29.98 "Hg2 mi
3:50 am28 °FSnow. Ice fog.8 mph100%29.98 "Hg1 mi
3:20 am28 °FSnow. Ice fog.9 mph100%30.01 "Hg1 mi
2:50 am28 °FSnow. Ice fog.9 mph100%30.01 "Hg2 mi
2:20 am28 °FSnow. Ice fog.8 mph93%30.01 "Hg2 mi
1:50 am28 °FSnow. Ice fog.8 mph93%30.01 "Hg2 mi
1:20 am28 °FLight snow. Ice fog.10 mph93%30.01 "Hg2 mi
Weather by CustomWeather, © 2017

See weather overviewHow to use our weather pages